Location: Foulmere
(52.0833°N, 0.0833°E)
Time: 02:38:54
(UTC+00:00)

Daily predictions for brighter satellites

Satellite Brightness Start Highest point End
(mag) Time Altitude Azimuth Time Altitude Azimuth Time Altitude Azimuth
ATLAS 3B R/B 3.4 03:30:34 48° NE 03:30:34 48° NE 03:36:41 10° ESE
ALOS 4.1 03:49:01 10° NE 03:53:02 28° E 03:53:16 27° E
Cosmos 2227 Rocket 4.1 03:57:13 20° NNE 03:57:13 20° NNE 03:59:05 10° NNE
Cosmos 2344 4.3 03:53:00 47° NNW 03:56:00 68° NE 04:07:55 10° ESE
NOSS 3-2 (C) 4.5 04:00:07 49° S 04:00:07 49° S 04:06:18 10° SSE
CENTAUR R/B 3.4 04:01:35 54° S 04:01:35 54° S 04:08:36 10° SSE
NOSS 3-4 (A) 4.4 04:00:49 36° SSE 04:02:03 40° ESE 04:07:52 10° NE
NOSS 3-4 (C) 4.5 04:00:54 35° SSE 04:02:11 39° ESE 04:07:59 10° NE
SL-4 R/B 4.3 04:15:02 21° E 04:15:02 21° E 04:16:26 10° E
Cosmos 1680 Rocket 4.0 04:20:02 58° NE 04:20:07 58° ENE 04:25:22 10° SE
ATLAS 2AS CENTAUR R/B 3.7 04:15:31 16° S 04:21:40 50° ESE 04:29:09 10° NE
Cosmos 2297 Rocket 4.0 04:30:31 20° N 04:30:31 20° N 04:32:49 10° NNE
ATLAS 5 CENTAUR R/B 3.6 04:31:18 27° NE 04:31:18 27° NE 04:32:28 10° NE
ATLAS CENTAUR R/B 3.0 04:32:06 30° E 04:32:06 30° E 04:34:21 10° ESE
ADEOS 4.2 04:27:56 10° NNE 04:33:05 54° E 04:38:12 10° S
Lacrosse 5 3.1 04:32:03 32° SSE 04:33:11 37° SE 04:37:49 10° ENE
Cosmos 2112 Rocket 4.2 04:38:53 56° N 04:39:56 71° ENE 04:45:16 10° SSE
Gbstr 26 Del rocket 4.4 04:43:33 26° SE 04:43:33 26° SE 04:45:29 10° SE
Cosmos 1745 Rocket 4.3 04:44:18 50° NW 04:44:18 50° NW 04:49:25 10° N
Cosmos 2263 Rocket 2.0 04:43:11 77° WSW 04:43:35 84° WNW 04:49:20 10° NNE
SJ 16-02 1.7 04:45:52 61° SE 04:46:10 63° ESE 04:50:34 10° NNE
Meteor 1-26 Rocket 4.1 04:48:58 35° NNW 04:51:32 83° W 04:57:10 10° S
Cosmos 1766 Rocket 3.6 04:58:04 67° N 04:58:04 67° N 05:01:59 10° N
FENGYUN 3A 3.5 04:52:34 10° NNE 04:58:02 86° WNW 05:03:27 10° SSW
Cosmos 2082 Rocket 4.2 04:57:54 12° N 05:01:31 21° NNE 05:05:44 10° E
Cosmos 2181 Rocket 3.8 04:56:28 10° NNW 05:02:41 73° W 05:08:47 10° S
Cosmos 1408 Rocket 4.0 04:59:05 10° S 05:03:30 64° E 05:07:55 10° NNE
USA 307 3.0 05:05:08 67° N 05:05:08 67° N 05:09:26 10° E
Okean 3 Rocket 4.2 05:07:16 41° N 05:07:16 41° N 05:10:15 10° N
COSMO-SKYMED 1 2.4 05:02:52 10° SSE 05:07:13 86° WSW 05:07:59 60° NNW
Cosmos 1709 Rocket 3.9 05:01:59 10° SSW 05:08:19 64° WNW 05:14:41 10° N
USA 308 2.9 05:11:14 65° NNW 05:11:29 67° N 05:15:47 10° E
Lacrosse 4 Rocket 3.4 05:14:32 17° SSW 05:14:32 17° SSW 05:15:51 10° S
Cosmos 1833 Rocket 4.2 05:08:14 14° NNW 05:12:20 30° NE 05:17:15 10° ESE
Meteor 2-3 Rocket 3.6 05:09:47 10° SSW 05:15:32 76° WNW 05:21:22 10° N
CZ-4C R/B 2.8 05:11:12 10° SSW 05:16:05 54° SE 05:22:01 10° NE
CZ-4B R/B 3.6 05:12:08 10° NNE 05:16:39 62° ESE 05:21:02 10° S
MOS 1 Rocket 4.0 05:12:55 10° SSE 05:17:42 58° ENE 05:22:47 10° N
FALCON 9 DEB 4.4 05:18:33 29° S 05:19:06 31° SSE 05:22:01 10° E
Cosmos 1689 Rocket 4.2 05:17:16 10° SSE 05:18:12 19° S 05:18:12 19° S
ATLAS 3B R/B 2.8 05:17:51 35° WNW 05:20:49 62° SW 05:27:51 10° SSE
COSMOS 2406 4.4 05:18:03 14° NNW 05:22:36 39° NE 05:27:59 10° ESE
Cosmos 1862 4.2 05:24:19 10° S 05:28:14 50° E 05:32:11 10° NNE
Genesis I 4.3 05:25:11 10° SSW 05:28:49 44° SE 05:32:31 10° NE
deb Chang Zheng 4 3.4 05:26:10 10° N 05:30:30 68° WNW 05:34:49 10° SSW
ALOS 2.5 05:26:10 10° N 05:30:38 45° WNW 05:31:45 38° WSW
Cosmos 990 Rocket 3.9 05:31:08 10° SSW 05:36:23 90° N 05:41:42 10° NNE
METEOR-M 4.2 05:32:52 10° N 05:38:04 54° WNW 05:43:16 10° SW
Cosmos 2074 Rocket 3.9 05:32:01 10° S 05:38:14 88° WNW 05:44:30 10° N
Cosmos 2227 Rocket 3.9 05:39:03 16° NNW 05:39:18 16° NNW 05:42:41 10° NNE
Meteor 1-31 Rocket 3.0 05:36:36 10° N 05:40:18 44° WNW 05:40:29 44° WNW
USA 305 2.9 05:38:55 41° WNW 05:40:20 72° N 05:44:39 10° E
Cosmos 405 Rocket 3.1 05:40:21 10° S 05:43:59 62° E 05:47:44 10° NNE
Cosmos 1812 2.5 05:42:51 18° NNW 05:45:40 77° W 05:49:30 10° S
Cosmos 2228 Rocket 2.9 05:43:43 10° NNW 05:48:10 77° W 05:52:33 10° S
EO 1 Delta rocket 3.7 05:43:33 10° S 05:48:28 72° W 05:53:06 10° NNW
Cosmos 1515 Rocket 4.0 05:46:48 27° NW 05:48:38 40° W 05:52:48 10° SSW
USA 306 2.9 05:47:01 35° WNW 05:48:46 74° N 05:53:05 10° E
CENTAUR R/B 4.3 05:48:49 19° W 05:49:35 19° WSW 05:55:17 10° SSW
Cosmos 1782 3.9 05:52:15 26° WSW 05:52:15 26° WSW 05:55:00 10° SSW
SL-4 R/B 1.7 05:50:37 35° W 05:52:10 85° S 05:55:52 10° E
NOSS 3-4 (A) 3.5 05:48:19 19° WSW 05:52:42 61° NW 05:59:12 10° NE
NOSS 3-4 (C) 3.5 05:48:24 19° WSW 05:52:49 61° NW 05:59:20 10° NE
PSLV R/B 4.4 05:50:06 10° SSW 05:53:59 39° W 05:55:47 26° NW
DMSP B5D1-3 4.4 05:50:06 10° S 05:55:15 76° WSW 06:00:27 10° NNW
SKYMED 2 4.3 05:51:38 10° SSW 05:55:30 31° W 05:56:36 27° WNW
Cosmos 2184 Rocket 4.0 05:49:28 10° SSW 05:55:47 72° WNW 06:02:12 10° N
SJ-12 4.2 05:53:40 10° N 05:57:32 43° WNW 06:01:22 10° SW
FALCON 9 DEB 3.4 05:56:59 22° SW 05:58:47 58° SSE 06:01:58 10° ENE
FALCON 9 DEB 3.1 05:59:52 33° WNW 06:01:19 86° NNE 06:04:48 10° E
Cosmos 1680 Rocket 4.5 06:00:24 23° WNW 06:01:54 26° W 06:06:15 10° SSW
Cosmos 1844 Rocket 2.7 05:56:17 10° SSW 06:01:57 89° WNW 06:07:41 10° NNE
Cosmos 1707 Rocket 3.9 06:00:51 10° N 06:05:11 66° ENE 06:09:30 10° SSE
EXPRESS MD2 4.3 06:03:37 23° W 06:05:54 54° SSW 06:12:50 10° ESE
Meteor PRIRODA 4.0 06:05:23 10° N 06:08:57 42° WNW 06:12:29 10° SW
ATLAS CENTAUR R/B 2.4 06:08:18 22° W 06:09:15 24° WSW 06:12:26 10° S
COSMOS 2455 3.7 06:04:14 10° SSW 06:10:05 55° ESE 06:15:58 10° NE
RESURS DK-1 2.3 06:06:07 10° SW 06:10:15 62° NW 06:14:25 10° NNE
NOAA 6 4.3 06:05:30 10° NNE 06:10:38 73° ESE 06:15:45 10° S
ADEOS 4.3 06:07:53 10° N 06:12:21 29° WNW 06:16:48 10° WSW
ERBS 3.1 06:11:05 24° NW 06:12:24 35° N 06:15:29 10° ENE
ATLAS 2AS CENTAUR R/B 3.1 06:04:45 10° WSW 06:12:40 64° NW 06:20:22 10° NE
EP 3 3.6 06:11:51 22° SW 06:12:54 69° SE 06:14:48 10° NE
H-2A R/B 2.7 06:09:27 10° N 06:13:20 60° WNW 06:17:09 10° SSW
Cosmos 2297 Rocket 4.1 06:12:19 11° NNW 06:14:16 12° NNW 06:16:31 10° NNE
Cosmos 1500 Rocket 3.7 06:11:09 10° SSW 06:15:21 50° WNW 06:19:36 10° N
CZ-4B DEB 4.3 06:10:18 10° NNE 06:15:49 82° ESE 06:21:18 10° SSW
Cosmos 1437 Rocket 2.7 06:12:05 10° NNW 06:15:49 56° W 06:19:30 10° S
Cosmos 1844 3.6 06:10:17 10° SSW 06:15:51 87° WNW 06:21:30 10° NNE
Lacrosse 5 1.8 06:11:18 12° WSW 06:15:56 75° NNW 06:21:01 10° ENE
Okean O Rocket 2.6 06:15:00 10° NNE 06:19:21 51° E 06:23:42 10° S
Cosmos 372 Rocket 4.2 06:14:24 10° SSW 06:19:28 73° ESE 06:24:35 10° NNE
Uosat 12 SS-18 rocket 4.4 06:16:46 15° NW 06:20:42 83° SW 06:26:23 10° SE
Cosmos 1242 Rocket 3.9 06:17:18 10° N 06:20:46 40° ENE 06:24:15 10° SE
PAYLOAD B 4.4 06:16:41 10° NNE 06:22:15 77° ESE 06:27:45 10° SSW
SMAP 3.6 06:18:25 10° NNE 06:23:05 64° ESE 06:27:42 10° S
Geosat 4.1 06:18:30 10° SE 06:23:32 80° NE 06:28:35 10° NNW
SJ 16-02 2.6 06:22:57 15° W 06:25:10 22° NW 06:28:39 10° N
USA 81 4.4 06:20:38 10° S 06:25:51 73° E 06:31:08 10° N
Cosmos 2263 Rocket 3.3 06:24:56 14° W 06:28:22 24° NW 06:32:58 10° NNE
FALCON 9 DEB 3.0 06:28:58 11° WSW 06:32:06 79° SSE 06:35:20 10° ENE
FALCON 9 DEB 3.0 06:29:05 11° WSW 06:32:10 82° SSE 06:35:24 10° ENE
ATLAS 5 CENTAUR R/B 3.7 06:28:45 10° S 06:32:22 30° ESE 06:36:22 10° ENE
Nadezhda 3 Rocket 4.3 06:27:18 10° NNW 06:33:16 45° W 06:39:09 10° SSW
Cosmos 1898 Rocket 4.0 06:30:55 10° SW 06:35:57 40° NW 06:41:00 10° NNE
Sich 1 3.0 06:31:34 10° SSW 06:36:00 75° WNW 06:40:28 10° N
AQUARIUS 4.4 06:32:19 10° NNE 06:36:51 77° ESE 06:41:20 10° S
CZ-2C R/B 2.6 06:31:51 10° S 06:37:20 76° WSW 06:42:43 10° NNW
H-2A R/B 2.2 06:33:31 10° N 06:37:22 64° WNW 06:41:10 10° SSW
Envisat 3.0 06:32:24 10° N 06:37:27 65° WNW 06:42:28 10° SSW
Cosmos 1743 Rocket 4.3 06:35:31 10° SW 06:39:30 31° WNW 06:43:32 10° N
COSMO-SKYMED 1 4.4 06:42:27 10° WSW 06:44:04 12° W 06:45:11 11° WNW
USA 307 3.0 06:41:18 12° WNW 06:45:18 79° SSW 06:49:38 10° ESE
Cosmos 2082 Rocket 2.6 06:41:01 10° NNW 06:46:43 66° NE 06:52:25 10° SE
CZ-4B R/B 3.2 06:41:46 10° NNE 06:47:09 87° ESE 06:52:34 10° SSW
CZ-4 R/B 3.9 06:46:03 10° NE 06:49:37 26° E 06:53:11 10° SSE
CZ-4B R/B 4.3 06:47:55 10° N 06:51:19 21° WNW 06:54:40 10° WSW
Cosmos 1862 Rocket 3.6 06:46:49 10° NNW 06:51:20 85° W 06:55:45 10° S
USA 308 3.0 06:47:25 10° WNW 06:51:39 74° SSW 06:55:57 10° ESE
Cosmos 1939 Rocket 3.8 06:48:38 10° NNE 06:52:39 54° E 06:56:40 10° S
Cosmos 1937 Rocket 3.9 06:48:04 10° WSW 06:52:54 39° NW 06:57:48 10° NNE
NOSS 7 (H) 4.5 06:51:47 10° WSW 06:54:44 41° NW 06:57:33 10° NE
FALCON 9 DEB 2.9 06:51:44 10° WSW 06:54:58 87° NNW 06:58:13 10° ENE
NOSS 7 (E) 4.3 06:52:13 10° WSW 06:55:36 59° NW 06:58:38 10° NE
Cosmos 1833 Rocket 2.7 06:51:08 10° NW 06:56:45 69° WSW 07:02:19 10° SSE
Cosmos 1269 Rocket 4.4 06:51:50 10° NNW 06:57:08 67° ENE 07:02:23 10° SE
Aureole 2 Rocket 2.8 06:55:38 10° WSW 06:57:47 24° WNW 06:59:59 10° N
Meteor 2-12 Rocket 4.5 06:52:20 10° SSW 06:58:26 63° WNW 07:04:34 10° N
Cosmos 1805 Rocket 4.1 06:54:27 10° SW 06:58:36 37° WNW 07:02:46 10° N
Meteor 1-27 Rocket 4.4 06:54:55 10° NNW 07:00:10 37° W 07:05:28 10° SSW
YAOGAN 6 3.4 06:57:40 10° N 07:00:44 28° WNW 07:03:44 10° SW
Cosmos 494 Rocket 4.0 06:57:27 10° NNW 07:02:36 65° WSW 07:07:40 10° S
Cosmos 2154 Rocket 4.5 06:57:28 10° SW 07:03:13 38° WNW 07:09:04 10° N
CZ-4C R/B 2.6 06:59:35 10° WSW 07:04:47 47° NNW 07:11:06 10° NE
Cosmos 1666 Rocket 3.6 07:01:18 10° SSW 07:05:34 59° WNW 07:09:53 10° N
COSMOS 2406 3.6 07:01:33 10° NW 07:07:05 50° WSW 07:12:37 10° S
Cosmos 1048 Rocket 4.5 07:02:17 10° NW 07:07:16 43° WSW 07:12:10 10° S
